[[{"header":{"parameterUnit":"m.s-1","parameterCategory":1,"la1":30.2991,"la2":30.254,"lo1":-89.0895,"lo2":-89.0444,"dy":0.0017,"dx":0.0017,"nx":28,"ny":28,"refTime":"2025-03-19T03:00:00:Z","depth":0,"parameterNumber":2,"parameterNumberName":"U-component_of_WINDS"},"data":[0,0,0,0,0,0,0,0,0,0,0,0,0,0,0,0,0,0,0,0,0,0,0,0,0,0,0,0,0,0,0,0,0,0,0,0,0,0,0,0,0,0,0,0,0,0,0,0,0,0,0,0,0,0,0,0,0,0,6.8227,6.8228,0,6.8357,6.8358,6.8359,6.8288,6.8285,6.8281,6.8278,6.8409,6.8416,6.8423,0,0,0,0,0,0,0,0,0,0,0,0,0,6.7918,6.7924,6.8227,6.8228,6.823,6.8356,6.8358,6.836,6.8289,6.8285,6.828,6.8276,6.8407,6.8415,6.8423,0,0,0,0,0,0,0,0,0,0,0,0,0,6.805,6.7926,6.8226,6.821,6.821,6.8356,6.8358,6.836,6.829,6.8284,6.8279,6.8274,6.8404,6.8414,6.8424,6.8594,0,0,6.8456,6.846,0,0,0,0,0,0,0,0,6.8043,6.8062,6.8211,6.8211,6.8211,6.8301,6.8297,6.8439,6.8291,6.8259,6.8278,6.8272,6.8377,6.839,6.8426,6.86,6.8606,6.8457,6.8463,6.8467,6.847,0,0,0,0,0,0,0,6.8034,6.8056,6.8278,6.8213,6.8213,6.8196,6.8209,6.8324,6.8347,6.8262,6.8257,6.8273,6.8377,6.8416,6.8428,6.8608,6.8456,6.8465,6.8472,6.8476,6.8931,6.8936,0,0,0,0,0,0,6.8026,6.8048,6.8274,6.8282,6.8112,6.8206,6.822,6.8277,6.8345,6.835,6.8278,6.8269,6.8401,6.8416,6.8432,6.8637,6.8467,6.8477,6.8483,6.8925,6.8932,6.8938,0,0,0,0,0,0,6.8019,6.8046,6.8269,6.8164,6.8191,6.8217,6.8282,6.8283,6.8322,6.8357,6.8361,6.8314,6.8397,6.8418,6.8555,6.864,6.8481,6.8491,6.8918,6.8927,6.8935,6.9046,0,0,0,0,0,0,6.8011,6.8044,6.8109,6.8166,6.8197,6.8389,6.8287,6.8289,6.834,6.833,6.8392,6.8397,6.8395,6.854,6.8565,6.8652,6.8499,6.891,6.8922,6.8932,6.9035,6.9058,6.9078,0,0,0,0,0,6.8,6.8134,6.8112,6.814,6.8278,6.8394,6.8412,6.8407,6.8347,6.8412,6.8436,6.8395,6.8627,6.8555,6.8582,6.8673,6.8905,6.8919,6.8932,6.9026,6.9054,6.9077,0,0,0,0,0,0,6.8085,6.8141,6.8118,6.8275,6.8331,6.8382,6.8464,6.8436,6.851,6.8498,6.8488,6.8503,6.8646,6.8673,6.8591,6.8842,6.8757,6.8776,6.8819,6.8846,6.8866,6.8857,6.8507,0,0,0,0,0,6.8123,6.8213,6.8256,6.8391,6.842,6.8438,6.8488,6.848,6.8537,6.856,6.8593,6.865,6.8735,6.8792,6.8873,6.9039,6.9052,6.9115,6.9136,6.9154,6.9171,6.9262,6.9291,6.8982,6.8982,6.8982,0,0,6.82,6.8242,6.8299,6.8409,6.8451,6.8545,6.8458,6.856,6.8629,6.8575,6.8707,6.8734,6.8796,6.8949,6.9018,6.8977,6.9259,6.9171,6.9184,6.9192,6.9279,6.9308,6.9334,6.8992,6.899,6.8988,0,0,6.839,6.843,6.8547,6.8592,6.8657,6.8668,6.8697,6.8754,6.877,6.8902,6.8864,6.8946,6.9094,6.9141,6.9184,6.9395,6.9361,6.9421,6.9532,6.9621,6.9646,6.9667,6.9743,6.977,6.9438,6.9439,6.9439,0,6.8477,6.8617,6.861,6.8717,6.8767,6.8723,6.8842,6.8886,6.8975,6.901,6.8962,6.9149,6.9188,6.9352,6.9404,6.944,6.9472,6.9414,6.9643,6.9664,6.9684,6.9757,6.9785,6.9446,6.9445,6.9444,6.9443,0,6.8723,6.8821,6.8907,6.8995,6.9055,6.9167,6.9178,6.924,6.9227,6.9244,6.938,6.9426,6.9516,6.9555,6.9543,6.9718,6.969,6.9643,6.9557,6.9721,6.9789,6.9816,6.9456,6.9453,6.9451,6.9449,0,0,6.8968,6.9053,6.9085,6.9125,6.9195,6.9271,6.9382,6.9471,6.9524,6.9588,6.9681,6.9808,6.9766,6.9815,6.9808,6.9887,7.0052,6.983,6.9831,6.987,7.025,7.0285,7.0317,7.0031,7.0036,7.004,7.0245,0,6.9162,6.9356,6.9355,6.9535,6.9626,6.9587,6.9684,6.9738,6.9757,6.9837,6.9858,6.9949,6.9885,6.9915,6.9991,7.0016,7.0129,7.0001,7.0118,7.0122,7.0103,7.0353,7.039,7.0581,7.0271,7.0276,7.0279,0,6.9415,6.9488,6.9677,6.9736,6.9774,6.9861,6.9944,7.0021,7.0082,7.0091,7.0147,7.0129,7.0242,7.0154,7.0311,7.0225,7.0272,7.0292,7.0299,7.031,7.021,7.037,7.0641,7.067,7.0321,7.0317,7.0314,0,6.9576,6.9721,6.9854,6.9889,6.9961,7.0024,7.0056,7.0112,7.0167,7.0239,7.0275,7.036,7.0406,7.0472,7.0478,7.0413,7.0636,7.0548,7.0647,7.0647,7.0695,7.0692,7.0978,7.0726,7.0726,7.0725,7.0725,0,6.9793,6.991,6.9927,7.0009,7.014,7.0137,7.0267,7.0294,7.0345,7.0431,7.0403,7.0485,7.0487,7.0571,7.0576,7.0706,7.0727,7.0738,7.0737,7.074,7.0739,7.0771,7.0758,7.0733,7.0731,7.073,7.0728,0,6.9994,7.001,7.0152,7.021,7.0227,7.0321,7.037,7.0448,7.0466,7.0576,7.0601,7.0629,7.0726,7.0739,7.0852,7.0856,7.1012,7.0998,7.0992,7.099,7.1088,7.1079,7.1405,7.1448,7.1168,7.1171,7.1173,0,7.0132,7.0222,7.029,7.0346,7.0383,7.0473,7.0529,7.0531,7.0591,7.0669,7.0738,7.0833,7.0909,7.1067,7.1097,7.1184,7.1172,7.128,7.1185,7.1185,7.1174,7.1169,7.1178,7.1299,7.1302,7.1304,7.1306,0,7.0375,7.0379,7.0461,7.0547,7.0615,7.0683,7.0746,7.0794,7.0804,7.0872,7.0972,7.1032,7.1149,7.1244,7.1331,7.1364,7.1338,7.1336,7.1364,7.1367,7.1361,7.1366,7.1043,7.1329,7.1326,7.1325,7.1323,7.1323,7.0549,7.0628,7.0688,7.0781,7.083,7.089,7.0967,7.0995,7.1078,7.1174,7.117,7.1281,7.1342,7.1456,7.1496,7.1583,7.1547,7.1587,7.1597,7.1607,7.1617,7.1347,7.1599,7.1598,7.1597,7.1597,7.1596,0,7.0791,7.0829,7.0915,7.1005,7.1079,7.1048,7.1117,7.1181,7.1279,7.1338,7.1414,7.153,7.1623,7.1661,7.1752,7.1814,7.1804,7.1838,7.1833,7.1842,7.1643,7.1611,7.1845,7.1845,7.1844,7.1844,7.1844,7.1844,7.0926,7.1058,7.107,7.1226,7.1262,7.1371,7.1413,7.1469,7.1517,7.1648,7.1725,7.175,7.1801,7.1896,7.198,7.1989,7.2024,7.2063,7.2067,7.1881,7.1856,7.1832,7.1801,7.2071,7.2071,7.2258,7.226,7.2261]},{"header":{"parameterUnit":"m.s-1","parameterCategory":1,"la1":30.2991,"la2":30.254,"lo1":-89.0895,"lo2":-89.0444,"dy":0.0017,"dx":0.0017,"nx":28,"ny":28,"refTime":"2025-03-19T03:00:00:Z","depth":0,"parameterNumber":3,"parameterNumberName":"V-component_of_WINDS"},"data":[0,0,0,0,0,0,0,0,0,0,0,0,0,0,0,0,0,0,0,0,0,0,0,0,0,0,0,0,0,0,0,0,0,0,0,0,0,0,0,0,0,0,0,0,0,0,0,0,0,0,0,0,0,0,0,0,0,0,-6.824,-6.8242,0,-6.8409,-6.8411,-6.8413,-6.8377,-6.8373,-6.837,-6.8367,-6.8537,-6.8545,-6.8552,0,0,0,0,0,0,0,0,0,0,0,0,0,-6.7883,-6.789,-6.824,-6.8242,-6.8244,-6.8409,-6.8411,-6.8414,-6.8377,-6.8373,-6.837,-6.8366,-6.8535,-6.8544,-6.8553,0,0,0,0,0,0,0,0,0,0,0,0,0,-6.8044,-6.7892,-6.824,-6.8246,-6.8248,-6.8409,-6.8411,-6.8414,-6.8378,-6.8373,-6.8369,-6.8364,-6.8532,-6.8543,-6.8554,-6.8717,0,0,-6.8588,-6.8593,0,0,0,0,0,0,0,0,-6.8034,-6.8057,-6.8243,-6.8246,-6.8249,-6.8367,-6.8348,-6.8516,-6.8379,-6.8329,-6.8367,-6.8362,-6.8484,-6.8499,-6.8541,-6.8725,-6.8733,-6.8589,-6.8596,-6.8601,-6.8604,0,0,0,0,0,0,0,-6.8023,-6.8049,-6.8307,-6.8246,-6.8249,-6.824,-6.8257,-6.8379,-6.8431,-6.8333,-6.833,-6.8351,-6.8485,-6.853,-6.8545,-6.8735,-6.8589,-6.8599,-6.8606,-6.861,-6.9062,-6.9067,0,0,0,0,0,0,-6.801,-6.804,-6.8301,-6.8312,-6.8128,-6.825,-6.827,-6.8334,-6.8429,-6.8439,-6.8355,-6.8349,-6.8514,-6.8532,-6.8551,-6.8749,-6.8601,-6.8611,-6.8617,-6.9057,-6.9063,-6.9069,0,0,0,0,0,0,-6.8003,-6.8034,-6.8295,-6.8176,-6.8208,-6.8261,-6.8333,-6.834,-6.8385,-6.8446,-6.8455,-6.8392,-6.8511,-6.8535,-6.8676,-6.8754,-6.8616,-6.8626,-6.9051,-6.9059,-6.9066,-6.9146,0,0,0,0,0,0,-6.7993,-6.8031,-6.8095,-6.8177,-6.8215,-6.8419,-6.8338,-6.8346,-6.8405,-6.8398,-6.8484,-6.8493,-6.8509,-6.866,-6.8688,-6.8767,-6.8635,-6.9044,-6.9054,-6.9064,-6.9136,-6.9155,-6.9172,0,0,0,0,0,-6.798,-6.8109,-6.8098,-6.813,-6.8295,-6.8423,-6.8444,-6.8461,-6.8411,-6.8475,-6.8514,-6.849,-6.8741,-6.8675,-6.8706,-6.8789,-6.9039,-6.9051,-6.9063,-6.9128,-6.9152,-6.9171,0,0,0,0,0,0,-6.8033,-6.812,-6.8109,-6.8269,-6.8339,-6.8417,-6.8498,-6.8485,-6.857,-6.856,-6.8576,-6.8595,-6.874,-6.8779,-6.8703,-6.8953,-6.8883,-6.8901,-6.8922,-6.8945,-6.8962,-6.8949,-6.8644,0,0,0,0,0,-6.8064,-6.8162,-6.8232,-6.8367,-6.8403,-6.8444,-6.8501,-6.8508,-6.858,-6.861,-6.8659,-6.873,-6.8825,-6.8887,-6.8977,-6.9142,-6.916,-6.9215,-6.9232,-6.9246,-6.9262,-6.9352,-6.9377,-6.9108,-6.9108,-6.9108,0,0,-6.8127,-6.8187,-6.8248,-6.8379,-6.8434,-6.8534,-6.8469,-6.8578,-6.8653,-6.8626,-6.8763,-6.8802,-6.8882,-6.9036,-6.9106,-6.9073,-6.9341,-6.9262,-6.9272,-6.9281,-6.9367,-6.9392,-6.9415,-6.9116,-6.9115,-6.9114,0,0,-6.8295,-6.835,-6.8469,-6.8526,-6.8611,-6.8638,-6.8666,-6.8746,-6.8772,-6.891,-6.8892,-6.898,-6.9143,-6.9201,-6.9252,-6.9442,-6.9423,-6.9471,-6.9563,-6.9651,-6.9672,-6.9691,-6.9759,-6.9783,-6.9487,-6.9487,-6.9487,0,-6.8363,-6.8515,-6.8531,-6.8642,-6.87,-6.8682,-6.8802,-6.8856,-6.8965,-6.9006,-6.8967,-6.9172,-6.9224,-6.9391,-6.9438,-6.948,-6.9512,-6.9461,-6.9668,-6.9687,-6.9705,-6.977,-6.9795,-6.9492,-6.9492,-6.9491,-6.9491,0,-6.8594,-6.87,-6.8785,-6.8893,-6.896,-6.9075,-6.9108,-6.9175,-6.9176,-6.9207,-6.9348,-6.941,-6.9513,-6.9553,-6.9555,-6.9722,-6.9698,-6.9664,-6.9594,-6.9735,-6.9797,-6.9822,-6.95,-6.9498,-6.9496,-6.9495,0,0,-6.88,-6.8916,-6.8947,-6.8996,-6.9088,-6.917,-6.9283,-6.9386,-6.9442,-6.9519,-6.9614,-6.9753,-6.9722,-6.978,-6.9788,-6.9865,-7.0012,-6.9821,-6.9823,-6.9854,-7.0199,-7.0224,-7.0253,-7.0,-7.0005,-7.0009,-7.0192,0,-6.8975,-6.9177,-6.9196,-6.9377,-6.9474,-6.9458,-6.9557,-6.9625,-6.9657,-6.9743,-6.9778,-6.9876,-6.9828,-6.9863,-6.9938,-6.9978,-7.0081,-6.9965,-7.0088,-7.0092,-7.0069,-7.0285,-7.0312,-7.0482,-7.0216,-7.022,-7.0223,0,-6.9208,-6.9292,-6.9484,-6.9563,-6.9605,-6.9694,-6.9789,-6.9872,-6.9948,-6.9966,-7.0031,-7.0029,-7.0145,-7.0071,-7.0232,-7.0152,-7.0204,-7.0231,-7.0238,-7.025,-7.0166,-7.0302,-7.0537,-7.0562,-7.0261,-7.0258,-7.0255,0,-6.9338,-6.95,-6.9635,-6.9678,-6.9774,-6.9837,-6.988,-6.9951,-7.0011,-7.0094,-7.0134,-7.0229,-7.0281,-7.0354,-7.0377,-7.0321,-7.0537,-7.0465,-7.0554,-7.0554,-7.06,-7.0597,-7.0846,-7.0634,-7.0633,-7.0633,-7.0632,0,-6.9533,-6.9651,-6.9696,-6.9779,-6.991,-6.9929,-7.0058,-7.0098,-7.0161,-7.0251,-7.0243,-7.0328,-7.0353,-7.0442,-7.0461,-7.0591,-7.0614,-7.0632,-7.0635,-7.0633,-7.063,-7.0666,-7.0655,-7.064,-7.0638,-7.0637,-7.0636,0,-6.9701,-6.9736,-6.9883,-6.9962,-6.9985,-7.0078,-7.0146,-7.0225,-7.0256,-7.037,-7.0398,-7.0446,-7.0551,-7.0581,-7.0706,-7.0719,-7.0871,-7.0864,-7.0846,-7.0846,-7.0934,-7.0926,-7.1215,-7.1254,-7.1016,-7.1018,-7.102,0,-6.9823,-6.9913,-7.0003,-7.0063,-7.0109,-7.0206,-7.0268,-7.0291,-7.0355,-7.0449,-7.0518,-7.0621,-7.0705,-7.0872,-7.0917,-7.1013,-7.1008,-7.1103,-7.1022,-7.1017,-7.1009,-7.1004,-7.1013,-7.1118,-7.112,-7.1122,-7.1124,0,-7.0036,-7.0049,-7.0139,-7.0236,-7.031,-7.0387,-7.0461,-7.0511,-7.0544,-7.0617,-7.0724,-7.0789,-7.0917,-7.102,-7.1117,-7.116,-7.1148,-7.1149,-7.1175,-7.1173,-7.1159,-7.1168,-7.0888,-7.1142,-7.114,-7.1139,-7.1138,-7.1137,-7.0185,-7.0264,-7.034,-7.0441,-7.0499,-7.0569,-7.0648,-7.0689,-7.0779,-7.0886,-7.0894,-7.101,-7.1083,-7.1213,-7.1261,-7.1351,-7.1323,-7.1361,-7.137,-7.1379,-7.1386,-7.1145,-7.1369,-7.1368,-7.1368,-7.1368,-7.1367,0,-7.0397,-7.0445,-7.0538,-7.0642,-7.0721,-7.0704,-7.0785,-7.0852,-7.0955,-7.1025,-7.1108,-7.1231,-7.1331,-7.1385,-7.1484,-7.1546,-7.1543,-7.1571,-7.1566,-7.1577,-7.1406,-7.1373,-7.1572,-7.1572,-7.1572,-7.1572,-7.1572,-7.1572,-7.0517,-7.0651,-7.0673,-7.0836,-7.0883,-7.0997,-7.1045,-7.1109,-7.1165,-7.1303,-7.1386,-7.1421,-7.1485,-7.1588,-7.1679,-7.1692,-7.1729,-7.176,-7.177,-7.161,-7.1589,-7.1569,-7.1538,-7.1768,-7.1769,-7.1934,-7.1935,-7.1937]}]]